Starlink 30269

operational
NORAD ID: 57528 Int'l Des: 2023-115 Owner: SPXS Country: US Constellation: starlink
LEOCIRCULAR

Starlink 30269について

説明を読み込み中...

リアルタイム位置

3D地球を読み込み中...

次回通過

高度履歴

Altitude vs Time

uPlot chart will show altitude changes over time

軌道要素

1 57528U 23115H 25308.75942566 -.00000141 00000-0 46519-5 0 9998
2 57528 43.0047 323.4209 0001101 275.7309 84.3408 15.02535478123526
Epoch: Nov 4, 2025 • Age: 7 hours

現在のステータス

高度 561.0 km
速度 7.58 km/s
衛星直下点 -11.76°S, 87.83°E
打ち上げ日 Aug 8, 2023
運用期間 2.2 years
タイプ internet

技術仕様

分類 Payload
質量 730.00 kg
乾燥質量 700.00 kg
総質量 730.00 kg
長さ 0.30 m
直径 4.10 m
スパン 29.00 m
形状 Box + pan
製造者 SPXS
バスタイプ Starlink V2M
フェーズステータス In Orbit
所有者/国 SPXS/US

大規模コンステレーション

Loading constellations...